30.06.2024;16:00;83
30.06.2024;15:00;83
30.06.2024;14:00;86
30.06.2024;13:00;89
30.06.2024;12:00;96
30.06.2024;11:00;90
30.06.2024;10:00;85
30.06.2024;09:00;80
30.06.2024;08:00;69
30.06.2024;07:00;82
30.06.2024;06:00;95
30.06.2024;05:00;98
30.06.2024;04:00;81
30.06.2024;03:00;70
30.06.2024;02:00;66
30.06.2024;01:00;61
30.06.2024;00:00;54
29.06.2024;23:00;71
29.06.2024;22:00;86
29.06.2024;21:00;93
29.06.2024;20:00;93
29.06.2024;19:00;98
29.06.2024;18:00;105
29.06.2024;17:00;108
29.06.2024;16:00;106
29.06.2024;15:00;108
29.06.2024;14:00;108
29.06.2024;13:00;106
29.06.2024;12:00;102
29.06.2024;11:00;94
29.06.2024;10:00;77
29.06.2024;09:00;54
29.06.2024;08:00;34
29.06.2024;07:00;14
29.06.2024;06:00;11
29.06.2024;05:00;9
29.06.2024;04:00;4
29.06.2024;03:00;12
29.06.2024;02:00;14
29.06.2024;01:00;28
29.06.2024;00:00;41
28.06.2024;23:00;62
28.06.2024;22:00;86
28.06.2024;21:00;96
28.06.2024;20:00;90
28.06.2024;19:00;95
28.06.2024;18:00;98
28.06.2024;17:00;108
